Location: Auckland
(36.8670°S, 174.7670°E)
Time: 16:38:17
(UTC+13:00)

H-2A R/B - Pass Details

Date: 24 January 2019
Orbit: 270 x 30692 km, 28.3° (Epoch: 19 February)

Event Time Altitude Azimuth Distance (km) Brightness Sun altitude
Rises 20:02:20 0° 262° (W) 20,534 11.8 5.8°
Reaches altitude 10° 20:38:51 10° 264° (W) 11,204 10.0 -0.9°
Maximum altitude 21:03:09 35° 319° (NW) 2,414 5.2 -5.3°
Drops below altitude 10° 21:08:00 10° 27° (NNE) 2,335 4.5 -6.1°
Enters shadow 21:08:49 - 34° (NE) 2,574 4.7 -6.3°
